User: anonymous   Login
Location: Newark
(44.3248°N, 23.7839°E)
Time: 03:46:51
(UTC+00:00)
Language:

RS-15 - Orbit

View from above orbital plane
View from above orbital plane
View from above satellite
View from above satellite

Ground track
Ground track

The orbit data is extracted from the following two-line orbital elements,

1 23439U 94085A   24106.58753217 -.00000053  00000-0 -29769-3 0  9994
2 23439  64.8139 145.0061 0151859 155.6478 205.1717 11.27576309206536
Epoch (UTC): 15 April 2024 14:06:02
Eccentricity: 0.0151859
inclination: 64.8139°
perigee height: 1895 km
apogee height: 2150 km
right ascension of ascending node: 145.0061°
argument of perigee: 155.6478°
revolutions per day: 11.27576309
mean anomaly at epoch: 205.1717°
orbit number at epoch: 20653

The dashed part of the orbit path shows where the satellite is in the earth's shadow,  

DLR